Location: Izdebno
(52.6670°N, 16.2170°E)
Time: 10:03:51
(UTC+01:00)

Vanguard 1 - Visible Passes

Search period start: 23 February 2024 00:00
Search period end: 04 March 2024 00:00
Orbit: 653 x 3826 km, 34.3° (Epoch: 22 February)

Date Brightness Start Highest point End Pass type
(mag) Time Alt. Az. Time Alt. Az. Time Alt. Az.
23 Feb 13.7 00:12:57 10° WSW 00:53:56 - SE 00:17:42 20° WSW visible
23 Feb 13.7 03:06:38 13° S 03:06:38 13° S 03:08:13 10° S visible
23 Feb 13.4 17:38:47 10° SSE 17:46:07 15° SE 17:55:08 10° E visible
23 Feb 13.0 19:52:10 10° SSW 20:05:54 36° SSE 20:11:38 31° SE visible
23 Feb 13.0 22:11:14 10° WSW 22:24:18 42° SSW 22:24:18 42° SSW visible
24 Feb 13.8 00:33:28 10° W 01:13:35 - SE 00:36:57 17° WSW visible
24 Feb 13.2 17:56:21 10° S 18:05:26 20° SE 18:17:26 10° E visible
24 Feb 12.9 20:11:40 10° SW 20:25:48 39° SSE 20:30:51 35° SE visible
24 Feb 13.0 22:31:22 10° WSW 22:43:30 40° SSW 22:43:30 40° SSW visible
25 Feb 13.9 00:54:09 10° W 01:33:15 - SSE 00:56:09 14° W visible
25 Feb 13.1 18:14:46 10° S 18:24:53 24° SE 18:37:21 12° E visible
25 Feb 12.8 20:31:22 10° SW 20:45:48 41° SSE 20:50:00 38° SE visible
25 Feb 13.1 22:51:35 10° WSW 23:02:38 37° SW 23:02:38 37° SW visible
26 Feb 14.0 01:15:02 10° W 01:52:54 - SSE 01:15:18 10° W visible
26 Feb 13.0 18:33:40 10° SSW 18:44:28 28° SE 18:56:27 16° ESE visible
26 Feb 12.8 20:51:12 10° SW 21:05:53 43° S 21:09:06 41° SSE visible
26 Feb 13.2 23:11:55 10° WSW 23:21:44 33° SW 23:21:44 33° SW visible
27 Feb14.102:12:32SSE02:12:32SSE01:34:23Wvisible
27 Feb 12.9 18:52:55 10° SSW 19:04:11 32° SSE 19:15:31 19° ESE visible
27 Feb 12.8 21:11:10 10° WSW 21:26:02 43° S 21:28:10 42° SSE visible
27 Feb 13.4 23:32:21 10° W 23:40:48 28° WSW 23:40:48 28° WSW visible
28 Feb 12.8 19:12:22 10° SW 19:24:01 36° SSE 19:34:33 22° ESE visible
28 Feb 12.8 21:31:14 10° WSW 21:46:12 42° S 21:47:11 42° S visible
28 Feb 13.5 23:52:58 10° W 23:59:50 24° WSW 23:59:50 24° WSW visible
29 Feb 12.8 19:32:03 10° SW 19:43:57 38° SSE 19:53:34 25° ESE visible
29 Feb 12.9 21:51:25 10° WSW 22:06:12 41° S 22:06:12 41° S visible
01 Mar 13.6 00:13:48 10° W 00:18:50 19° WSW 00:18:50 19° WSW visible
01 Mar 12.7 19:51:51 10° SW 20:03:59 40° S 20:12:33 28° SE visible
01 Mar 13.0 22:11:41 10° WSW 22:25:11 38° SSW 22:25:11 38° SSW visible
02 Mar 13.8 00:34:59 10° W 00:37:49 15° WSW 00:37:49 15° WSW visible
02 Mar 12.8 17:54:12 10° SSW 18:03:10 28° SSE 18:16:53 10° E visible
02 Mar 12.7 20:11:46 10° WSW 20:24:05 40° S 20:31:32 31° SE visible
02 Mar 13.1 22:32:06 10° WSW 22:44:10 34° SSW 22:44:10 34° SSW visible
03 Mar 13.9 00:56:46 10° WSW 00:56:49 10° WSW 00:56:49 10° WSW visible
03 Mar 12.7 18:13:38 10° SSW 18:22:57 31° SSE 18:37:36 10° ESE visible
03 Mar 12.8 20:31:48 10° WSW 20:44:14 39° S 20:50:31 33° SSE visible
03 Mar 13.2 22:52:39 10° WSW 23:03:09 29° SW 23:03:09 29° SW visible
